Temperature
17 16 16 15 15 15 14 14 14 14 14 14 14 14 13 13 13 13 13 13 13 12 12 12 12 12 12 12 12 12 11 11 11 11 10 10 10 10 10 10 10 9 9
16 16 15 15 15 14 14 14 14 14 14 14 14 13 13 13 13 13 13 13 12 12 12 12 12 12 12 11 11 11 11 11 10 10 10 9 9 9 9 9 9 9 9
16 15 15 14 14 14 14 13 13 14 14 13 13 13 13 13 12 12 12 12 12 12 12 12 12 12 11 11 11 11 11 10 10 10 9 9 9 9 9 9 9 9 9
16 15 15 14 14 13 13 13 13 13 13 13 13 13 13 13 13 12 12 12 12 12 12 11 11 11 11 11 11 10 10 10 10 9 9 9 9 8 8 8 8 8 8
15 15 14 14 13 13 13 13 13 13 13 13 13 13 12 12 12 12 12 12 12 12 11 11 11 11 11 11 10 10 10 10 9 9 9 9 8 8 8 8 8 8 8
15 14 14 13 13 13 13 12 12 12 12 12 12 12 12 12 12 11 11 11 11 11 11 11 11 11 10 10 10 10 9 9 9 9 9 9 8 8 7 7 7 7 7
14 13 13 12 12 12 12 12 12 12 12 12 12 12 12 12 11 11 11 11 11 11 11 11 10 10 10 10 10 9 9 9 9 9 8 8 8 8 7 7 6 6 7
13 12 12 12 11 11 11 11 11 11 11 11 11 11 11 11 11 11 11 11 10 10 10 10 10 10 10 9 9 9 9 9 8 8 8 8 8 7 7 6 6 6 5
11 11 11 11 11 11 11 11 11 11 11 11 10 10 10 10 10 10 10 10 10 10 10 10 10 9 9 9 9 8 8 8 8 8 8 7 7 7 7 6 6 5 5
10 10 10 10 10 10 10 10 10 10 10 10 10 10 10 10 10 10 9 9 9 9 9 9 9 9 9 8 8 8 8 8 7 7 7 7 7 7 6 6 5 5 5
9 9 9 9 9 9 9 9 9 9 9 9 9 9 9 9 9 9 9 9 9 9 9 8 8 8 8 8 8 7 7 7 7 7 7 7 6 6 6 6 5 5 4
8 8 8 8 8 8 8 8 8 8 8 9 9 9 9 9 9 9 9 9 8 8 8 8 8 8 7 7 7 7 7 7 6 6 6 6 6 5 5 5 5 5 4
6 7 7 7 7 7 7 7 7 8 8 8 8 8 8 8 8 8 8 8 8 8 7 7 7 7 7 7 7 6 6 6 6 6 5 5 5 5 5 5 4 4 4
5 5 5 5 5 6 6 6 6 7 7 7 8 8 8 8 8 8 8 7 7 7 7 7 6 6 6 6 6 6 5 5 5 5 5 5 4 4 4 4 4 3 3
4 4 4 4 4 5 5 5 6 6 6 7 7 7 7 7 7 7 7 7 6 6 6 6 6 6 6 6 5 5 5 5 5 4 4 4 4 4 3 3 3 3 3
4 4 4 4 4 4 4 4 5 5 5 6 6 6 6 6 6 6 6 6 6 6 6 5 5 5 5 5 5 4 4 4 4 4 4 3 3 3 3 3 3 2 2
3 3 3 3 3 3 4 4 4 4 4 5 5 5 6 6 6 6 5 5 5 5 5 5 5 5 5 5 4 4 4 3 3 3 3 3 2 2 2 2 2 2 1
2 2 3 3 3 3 3 3 3 3 4 4 4 5 5 5 5 5 5 5 5 4 4 4 4 4 4 4 4 3 3 3 3 2 2 2 2 2 1 1 1 1 1
2 2 2 2 2 3 3 3 3 3 3 3 3 4 4 4 4 4 4 4 4 4 4 4 4 4 3 3 3 3 2 2 2 2 2 1 1 1 1 1 1 1 0
1 1 1 1 2 2 2 2 2 2 3 3 3 3 3 3 3 3 3 3 3 3 3 3 3 3 3 2 2 2 1 1 1 1 1 1 0 0 -0 -0 -0 -0 -0
0 1 1 1 1 1 1 2 2 2 2 2 2 2 2 2 2 2 2 2 2 2 2 2 2 2 2 2 1 1 1 1 1 0 0 0 -0 -0 -0 -0 -0 -1 -1
-0 -0 0 0 0 1 1 1 1 1 1 1 1 1 1 1 1 1 1 1 1 1 1 1 1 1 1 1 1 0 0 -0 -0 -0 -0 -0 -0 -1 -1 -1 -1 -1 -2
-1 -1 -1 -0 -0 0 0 1 1 0 1 1 1 1 1 1 1 1 1 1 1 1 1 1 1 0 0 0 -0 -0 -1 -1 -1 -1 -1 -1 -1 -1 -1 -1 -2 -2 -2
-2 -2 -1 -1 -1 -0 -0 -0 -0 -0 0 0 0 0 0 0 0 -0 -0 0 0 -0 -0 -0 -0 -0 -0 -0 -1 -1 -1 -1 -1 -2 -2 -2 -2 -2 -2 -2 -2 -2 -3
-2 -2 -2 -2 -1 -1 -1 -1 -1 -1 -1 -1 -1 -1 -1 -1 -1 -1 -1 -1 -1 -1 -1 -1 -1 -1 -1 -1 -1 -2 -2 -2 -2 -2 -2 -2 -2 -2 -2 -3 -3 -3 -3
-3 -3 -2 -2 -2 -2 -2 -2 -2 -2 -1 -1 -1 -1 -1 -1 -1 -1 -1 -2 -2 -2 -2 -2 -2 -2 -2 -2 -2 -2 -2 -3 -3 -3 -3 -3 -3 -3 -3 -3 -3 -3 -4
Wind_Speed
9 8 9 10 10 10 11 11 10 9 8 6 6 5 5 4 3 4 6 6 6 6 5 3 3 3 3 3 3 2 2 1 1 1 1 1 1 1 1 1 1 1 0
9 9 9 9 10 11 11 11 10 10 9 6 5 5 5 4 3 4 5 6 6 5 5 3 2 2 2 3 3 3 2 1 1 1 1 0 2 2 1 0 0 0 1
10 10 9 9 9 10 10 10 9 9 8 8 6 6 4 3 3 3 3 4 5 5 5 4 3 2 2 3 3 3 3 2 1 1 2 1 2 1 2 1 1 0 1
8 9 9 9 9 9 8 8 9 9 8 8 8 9 6 5 5 4 4 3 5 5 5 5 4 3 2 2 3 3 2 3 2 1 1 1 2 1 1 2 1 1 2
8 9 9 8 8 8 7 7 8 8 8 8 8 8 6 5 5 5 6 5 4 5 5 4 3 3 2 2 2 2 2 2 3 2 1 1 1 1 1 2 3 3 2
8 8 7 7 7 7 7 7 8 7 8 8 8 7 7 7 7 6 5 4 3 3 4 4 3 3 2 2 2 2 2 2 2 2 1 1 1 1 1 2 3 3 3
6 7 8 8 8 8 7 7 8 7 7 7 7 7 7 7 7 7 6 5 3 3 3 3 3 2 2 2 2 2 2 2 3 3 2 2 2 1 2 2 3 3 3
5 5 6 7 8 8 8 8 8 7 6 6 6 5 6 5 4 5 5 5 4 3 4 3 3 2 2 2 2 2 3 2 3 3 3 2 2 2 2 2 2 3 3
4 4 5 5 6 7 7 8 7 6 6 6 6 5 5 5 5 4 5 4 3 3 4 4 3 2 2 2 2 2 3 3 2 3 3 2 2 2 2 2 2 2 4
4 4 4 4 5 6 6 6 6 6 5 5 5 5 4 5 5 5 5 4 3 3 3 4 3 3 2 2 2 2 2 3 3 2 3 3 2 2 2 2 2 2 3
3 3 3 4 5 5 6 5 5 5 5 5 5 5 5 4 4 4 4 4 3 3 3 3 3 3 3 3 3 3 2 3 3 2 2 3 2 2 2 2 2 2 2
4 4 4 5 5 5 5 5 5 5 5 5 6 5 5 5 4 4 4 4 3 3 2 2 2 2 2 2 3 3 3 3 3 3 3 3 2 2 2 2 3 3 3
5 5 5 4 4 4 4 4 5 5 5 5 6 5 5 4 4 4 3 3 3 3 2 2 2 2 2 2 2 3 3 3 3 3 3 3 2 3 2 2 2 2 3
5 5 4 4 4 4 4 5 5 5 5 5 5 5 4 4 4 3 3 3 2 2 2 2 2 2 2 2 2 2 2 2 2 2 2 2 3 3 3 2 3 2 2
4 4 4 4 4 5 5 5 5 4 5 5 4 4 4 4 4 3 3 3 2 2 1 1 1 1 1 2 2 2 1 1 1 1 2 2 2 3 3 3 3 2 2
4 3 4 4 4 4 5 5 4 4 5 5 4 4 4 4 4 3 3 3 2 1 1 1 1 1 0 1 1 1 2 1 2 2 2 2 2 2 3 4 4 3 3
3 3 3 3 3 4 5 5 4 5 5 5 4 4 4 4 3 3 3 2 1 1 1 0 0 0 0 1 1 0 1 2 2 2 2 2 2 2 2 3 3 4 5
3 3 3 4 4 5 5 5 5 5 5 5 5 4 4 4 3 3 3 1 1 1 0 0 0 0 0 0 1 0 0 1 2 2 3 2 2 3 3 2 2 3 4
3 3 4 4 5 5 5 5 5 5 5 5 4 4 4 3 3 3 2 1 1 1 1 1 1 1 1 1 1 1 0 1 1 1 2 2 2 4 4 2 2 3 3
4 4 4 5 5 4 4 5 5 5 5 4 4 3 3 3 2 2 1 1 1 0 1 1 1 1 1 1 2 2 0 1 1 2 2 3 4 5 4 3 3 3 4
5 5 4 4 4 4 4 5 5 5 3 3 4 3 3 2 2 2 1 1 1 1 1 1 1 1 1 2 2 2 1 1 1 2 2 2 5 5 5 4 3 5 4
5 4 4 4 4 4 4 5 4 3 3 3 3 3 2 2 2 2 1 1 1 1 1 1 1 1 2 2 2 3 3 2 1 2 2 2 4 5 5 4 4 5 4
4 4 4 4 4 4 4 4 2 2 3 3 3 3 3 2 2 1 1 1 1 1 0 0 0 1 1 2 3 3 3 3 2 2 3 5 6 5 3 3 4 4 1
4 3 4 4 4 4 4 3 3 3 3 3 2 2 2 2 2 2 1 1 0 0 0 1 1 1 1 1 1 1 1 2 2 2 3 4 5 4 4 3 3 2 1
3 3 3 3 3 4 4 4 3 3 3 2 2 2 2 2 2 2 2 1 1 1 1 1 1 1 2 2 3 3 2 2 2 2 2 2 2 2 2 2 2 1 2
3 3 3 3 3 3 4 4 4 3 2 2 2 1 1 1 1 1 2 4 3 3 2 2 2 2 2 3 4 4 4 4 3 3 1 2 2 2 2 2 2 2 2
Wind_Direction
192 172 166 161 156 157 158 161 161 160 155 154 151 144 145 140 134 128 132 137 136 138 132 128 135 133 146 154 147 130 113 105 103 88 9 315 281 188 117 93 84 94 164
180 172 166 163 165 164 163 164 164 161 159 158 156 148 139 139 140 130 131 139 139 140 141 127 136 144 148 145 148 135 136 150 128 130 138 287 312 313 311 261 182 296 7
176 172 166 165 163 163 165 167 161 158 154 149 139 132 124 127 136 147 153 144 145 144 137 134 129 141 155 167 168 156 153 172 202 145 139 156 226 271 279 249 248 265 327
175 169 168 168 167 161 157 157 157 155 154 153 154 157 162 166 171 163 157 143 138 134 136 137 140 148 155 166 176 169 168 161 188 217 208 183 159 159 284 303 285 301 293
178 170 168 164 158 152 156 157 156 156 156 157 160 163 164 161 154 153 152 151 147 140 139 140 139 151 165 175 177 177 175 177 180 180 191 250 301 185 182 266 285 294 275
169 163 156 151 150 145 149 153 154 157 159 162 167 168 166 162 156 155 154 154 154 154 146 146 142 151 159 179 186 188 186 190 181 185 172 165 183 226 212 240 274 278 275
149 150 150 154 153 149 150 152 150 153 160 165 169 168 165 163 162 157 156 156 158 161 170 156 153 150 153 164 164 187 198 196 189 200 205 198 216 216 217 230 263 275 279
124 132 148 152 153 153 152 153 153 154 157 160 161 158 153 156 157 152 151 154 158 159 150 146 141 145 147 161 163 197 205 199 201 206 210 211 215 213 213 218 240 283 283
109 126 136 145 150 152 153 154 153 151 154 151 145 146 144 143 143 139 135 138 143 148 145 149 155 153 155 174 179 198 210 204 204 207 211 215 216 209 214 213 206 223 274
112 121 129 140 143 142 145 146 147 147 144 138 138 138 133 134 131 128 133 137 142 144 151 158 164 170 175 185 197 206 213 203 212 213 212 224 225 220 220 216 224 219 236
80 101 107 112 116 122 129 136 140 136 134 133 130 125 122 121 122 127 131 133 131 134 141 159 164 174 187 190 201 213 212 214 219 223 223 231 227 227 234 234 236 242 240
78 81 85 85 92 101 109 116 119 122 128 130 126 123 121 121 125 129 127 128 131 132 140 151 160 177 190 193 199 217 220 217 218 224 225 233 237 238 240 233 244 250 246
72 75 79 84 90 94 99 102 104 105 101 107 116 118 120 120 120 120 120 126 131 131 129 144 162 179 190 191 209 220 226 223 221 219 222 230 223 242 246 244 254 262 279
76 73 76 77 82 87 90 93 92 90 98 102 111 114 115 117 116 114 115 115 125 134 137 152 168 180 193 200 205 211 213 223 237 232 227 232 222 229 235 251 246 257 272
65 70 71 75 77 81 80 84 87 86 90 95 98 105 103 101 99 101 107 109 113 120 140 158 159 160 184 182 174 193 205 212 241 253 243 242 254 265 260 263 250 243 256
44 60 72 77 82 88 90 84 84 86 88 93 91 91 96 96 93 91 91 89 86 83 94 117 138 152 192 147 164 191 196 207 229 246 252 274 267 272 289 289 287 277 260
39 45 64 80 85 90 95 93 86 88 91 90 88 86 88 94 92 88 84 81 75 69 84 92 103 123 168 142 156 185 200 211 229 238 243 270 280 290 257 285 302 302 292
37 44 55 67 78 87 86 85 89 91 93 92 88 82 82 85 85 89 87 75 69 63 59 34 21 48 288 266 217 269 164 202 228 239 235 237 249 256 257 271 291 289 293
46 47 51 67 75 86 92 91 92 92 89 84 82 81 80 81 79 76 77 71 72 51 43 41 53 47 324 350 332 335 214 219 263 272 266 261 258 272 285 287 285 299 311
51 55 55 62 69 72 88 94 91 89 85 81 72 70 75 82 82 71 46 41 62 30 31 31 21 22 330 322 331 339 276 261 291 308 302 288 279 280 289 274 261 275 290
48 54 63 68 70 73 80 86 80 77 74 80 79 67 66 70 70 61 48 46 52 39 31 29 14 12 347 336 326 322 318 262 289 297 300 290 289 291 293 294 269 271 293
42 49 61 61 55 61 80 79 68 64 68 76 81 76 67 59 55 58 36 27 55 61 40 27 8 3 356 350 334 332 322 316 300 291 292 295 304 308 309 310 301 304 317
35 39 55 57 47 48 70 84 63 61 72 76 72 63 58 55 48 56 38 15 32 76 28 359 333 345 353 348 349 345 336 331 330 308 310 317 320 322 317 312 316 321 325
42 38 47 56 46 42 53 63 50 48 71 80 70 64 60 48 38 35 27 12 347 0 307 277 279 303 323 335 343 341 339 348 342 331 320 324 325 327 324 328 329 328 302
37 44 50 56 47 43 45 43 42 45 57 67 63 57 49 41 34 27 19 352 303 250 249 236 233 244 274 292 314 321 321 323 306 330 338 338 330 329 334 331 330 329 322
41 46 43 46 42 45 43 31 33 40 51 59 49 47 48 35 25 18 8 6 350 347 322 284 270 281 287 296 310 319 322 320 316 331 320 316 316 309 308 311 316 317 307
Height
1469 1472 1475 1479 1482 1486 1489 1492 1496 1499 1502 1505 1508 1511 1514 1517 1520 1522 1524 1526 1527 1529 1531 1532 1533 1534 1535 1536 1537 1538 1539 1539 1540 1540 1540 1541 1541 1541 1541 1541 1541 1540 1539
1465 1468 1472 1475 1479 1482 1486 1489 1492 1495 1499 1502 1505 1509 1512 1514 1517 1519 1522 1523 1525 1527 1528 1529 1531 1532 1533 1534 1535 1536 1536 1537 1538 1538 1538 1538 1539 1538 1538 1538 1538 1537 1537
1460 1464 1468 1471 1475 1479 1482 1486 1489 1492 1496 1499 1503 1506 1509 1511 1514 1516 1518 1520 1522 1524 1525 1527 1528 1529 1530 1531 1532 1533 1534 1534 1535 1536 1537 1537 1536 1536 1535 1535 1534 1534 1534
1457 1460 1464 1468 1471 1475 1479 1482 1485 1489 1492 1496 1499 1502 1504 1507 1510 1512 1515 1517 1519 1521 1522 1524 1525 1526 1527 1528 1529 1530 1531 1532 1532 1533 1534 1535 1534 1534 1532 1531 1531 1531 1530
1454 1457 1461 1464 1468 1472 1475 1479 1483 1486 1489 1492 1496 1499 1502 1504 1507 1510 1512 1514 1516 1518 1519 1520 1522 1523 1524 1525 1526 1527 1528 1528 1529 1530 1530 1531 1531 1531 1530 1528 1527 1526 1526
1451 1454 1458 1461 1465 1469 1472 1476 1479 1482 1486 1489 1492 1495 1498 1501 1503 1506 1508 1510 1512 1514 1516 1517 1518 1519 1521 1522 1523 1524 1525 1525 1526 1526 1527 1527 1527 1527 1527 1525 1523 1522 1521
1448 1452 1455 1458 1462 1465 1469 1472 1475 1479 1482 1486 1489 1492 1494 1497 1500 1502 1504 1506 1508 1510 1512 1513 1515 1516 1517 1518 1519 1520 1521 1522 1522 1523 1523 1523 1523 1523 1523 1522 1520 1518 1517
1446 1449 1453 1456 1459 1462 1465 1469 1472 1476 1479 1482 1485 1489 1491 1494 1497 1499 1501 1503 1505 1507 1508 1510 1511 1513 1514 1515 1515 1516 1517 1518 1518 1519 1519 1519 1519 1519 1519 1519 1517 1514 1512
1446 1449 1451 1454 1457 1460 1463 1466 1469 1473 1476 1479 1482 1485 1488 1491 1493 1496 1498 1500 1502 1504 1505 1507 1508 1509 1510 1511 1512 1512 1513 1514 1514 1514 1515 1515 1515 1515 1515 1515 1514 1513 1509
1446 1448 1450 1453 1455 1458 1461 1464 1467 1470 1473 1477 1479 1482 1485 1488 1490 1493 1495 1497 1499 1501 1502 1503 1504 1505 1506 1507 1508 1508 1509 1510 1510 1510 1510 1510 1510 1510 1510 1510 1509 1509 1507
1446 1448 1450 1452 1454 1456 1459 1462 1465 1468 1471 1474 1477 1480 1482 1485 1488 1490 1492 1494 1496 1497 1499 1500 1501 1502 1502 1503 1504 1504 1505 1505 1505 1506 1506 1506 1506 1506 1505 1505 1504 1504 1503
1446 1448 1449 1451 1453 1455 1458 1460 1463 1466 1469 1471 1474 1477 1480 1482 1485 1487 1489 1491 1493 1494 1495 1497 1498 1498 1499 1499 1500 1500 1501 1501 1501 1501 1501 1501 1501 1501 1500 1500 1499 1498 1498
1448 1449 1450 1451 1453 1455 1457 1459 1461 1464 1466 1469 1472 1474 1477 1480 1482 1484 1486 1488 1490 1491 1492 1493 1494 1495 1495 1496 1496 1496 1497 1497 1497 1497 1497 1497 1496 1496 1495 1495 1494 1493 1492
1449 1450 1450 1451 1453 1454 1456 1458 1460 1462 1464 1467 1469 1472 1474 1477 1479 1482 1484 1485 1487 1488 1489 1490 1491 1491 1491 1492 1492 1492 1493 1493 1493 1493 1492 1492 1492 1491 1491 1490 1489 1488 1487
1450 1450 1451 1451 1453 1454 1456 1457 1459 1461 1463 1465 1467 1470 1472 1475 1477 1479 1481 1482 1484 1485 1486 1487 1487 1488 1488 1488 1488 1488 1489 1489 1488 1488 1488 1488 1487 1487 1486 1486 1485 1484 1482
1451 1452 1451 1452 1453 1454 1455 1456 1458 1460 1462 1464 1466 1468 1470 1473 1475 1477 1478 1479 1481 1482 1483 1483 1484 1484 1484 1484 1485 1485 1485 1485 1484 1484 1483 1483 1483 1482 1482 1481 1480 1480 1478
1452 1452 1451 1451 1453 1454 1455 1456 1457 1459 1461 1463 1465 1466 1469 1470 1472 1474 1476 1477 1478 1479 1479 1480 1480 1480 1480 1481 1481 1481 1481 1481 1480 1480 1479 1479 1478 1478 1477 1476 1475 1474 1473
1452 1452 1452 1452 1453 1454 1455 1456 1457 1459 1460 1462 1463 1465 1467 1468 1470 1471 1473 1474 1475 1475 1476 1476 1477 1477 1477 1477 1477 1477 1477 1476 1476 1476 1475 1475 1474 1473 1472 1471 1470 1469 1468
1453 1452 1452 1452 1453 1453 1454 1455 1457 1458 1459 1461 1462 1464 1465 1467 1468 1469 1470 1471 1472 1472 1473 1473 1473 1473 1473 1473 1473 1473 1473 1472 1472 1472 1471 1471 1470 1469 1469 1467 1465 1464 1463
1452 1452 1452 1452 1453 1453 1454 1455 1456 1457 1458 1460 1461 1463 1464 1465 1466 1466 1468 1468 1469 1469 1470 1470 1470 1470 1470 1470 1470 1470 1469 1468 1468 1467 1467 1467 1466 1465 1464 1463 1461 1459 1458
1452 1452 1452 1452 1453 1453 1454 1455 1455 1456 1458 1459 1460 1461 1462 1463 1464 1464 1465 1466 1465 1466 1466 1467 1467 1467 1467 1467 1466 1466 1466 1465 1464 1463 1463 1462 1462 1461 1460 1459 1457 1456 1455
1453 1452 1452 1452 1453 1453 1454 1454 1455 1456 1458 1458 1459 1460 1461 1461 1462 1462 1463 1463 1463 1463 1463 1463 1463 1463 1463 1463 1463 1463 1462 1462 1461 1459 1459 1458 1458 1457 1456 1455 1453 1452 1451
1453 1452 1452 1452 1452 1453 1453 1454 1455 1456 1456 1457 1457 1458 1459 1459 1460 1460 1460 1461 1460 1460 1460 1460 1460 1460 1460 1460 1459 1459 1458 1458 1457 1456 1455 1455 1454 1453 1452 1450 1450 1448 1447
1452 1452 1451 1451 1451 1452 1453 1453 1454 1454 1455 1455 1455 1456 1457 1457 1458 1458 1458 1458 1458 1458 1458 1458 1457 1457 1457 1456 1456 1455 1455 1454 1453 1452 1451 1451 1450 1449 1448 1447 1446 1445 1444
1451 1451 1451 1451 1451 1451 1452 1452 1452 1453 1453 1453 1454 1454 1455 1455 1455 1456 1456 1456 1456 1456 1456 1455 1455 1454 1453 1454 1454 1453 1452 1451 1450 1449 1448 1447 1446 1445 1444 1443 1442 1442 1441
1450 1450 1450 1450 1450 1450 1450 1450 1451 1451 1451 1451 1452 1452 1452 1453 1453 1453 1453 1453 1454 1453 1453 1453 1453 1452 1452 1451 1451 1450 1450 1449 1448 1446 1444 1443 1443 1442 1441 1440 1439 1438 1437